ETD205 VABB-OMAA

Flight info

Callsign ETD205
Flight time 2h 39m
Altitude 40000
Route SAKUN V1 BIMOT V2 SUGID N571 PARAR N767 ELIGO L631 MCT T508 MIXAM P899 ROVOS
Aircraft A35K/H-SDE2E3GHIJ3J4J5LM1ORWXY/LB1D1

Departure

Time 2026-04-28 07:25
Airport Chhatrapati Shivaji Maharaj International Airport (VABB)

Arrival

Time 2026-04-28 10:05
Airport Zayed International Airport (OMAA)
Time Latitude Longitude Altitude Speed Heading
2026-04-28 06:40 19.09510 72.87423 55 ft 0 kts 346°
2026-04-28 07:05 19.09498 72.87426 47 ft 2 kts 348°
2026-04-28 07:06 19.09482 72.87430 47 ft 2 kts 350°
2026-04-28 07:06 19.09465 72.87432 47 ft 2 kts 353°
2026-04-28 07:06 19.09449 72.87434 47 ft 2 kts 359°
2026-04-28 07:06 19.09433 72.87433 50 ft 2 kts
2026-04-28 07:07 19.09417 72.87428 47 ft 2 kts 30°
2026-04-28 07:07 19.09404 72.87417 48 ft 2 kts 52°
2026-04-28 07:07 19.09401 72.87413 48 ft 0 kts 51°
2026-04-28 07:14 19.09407 72.87423 55 ft 3 kts 59°
2026-04-28 07:14 19.09413 72.87445 49 ft 0 kts 80°
2026-04-28 07:15 19.09413 72.87451 53 ft 2 kts 87°
2026-04-28 07:16 19.09409 72.87477 50 ft 5 kts 108°
2026-04-28 07:16 19.09386 72.87517 51 ft 8 kts 126°
2026-04-28 07:16 19.09361 72.87550 48 ft 1 kts 129°
2026-04-28 07:16 19.09351 72.87564 51 ft 0 kts 129°
2026-04-28 07:17 19.09344 72.87572 49 ft 3 kts 129°
2026-04-28 07:17 19.09323 72.87599 51 ft 7 kts 129°
2026-04-28 07:18 19.09286 72.87645 47 ft 9 kts 133°
2026-04-28 07:18 19.09227 72.87670 49 ft 11 kts 174°
2026-04-28 07:18 19.09197 72.87672 48 ft 1 kts 175°
2026-04-28 07:18 19.09176 72.87676 51 ft 5 kts 166°
2026-04-28 07:19 19.09151 72.87704 52 ft 7 kts 112°
2026-04-28 07:19 19.09136 72.87771 49 ft 11 kts 121°
2026-04-28 07:19 19.09077 72.87818 48 ft 9 kts 138°
2026-04-28 07:19 19.09059 72.87886 49 ft 5 kts 90°
2026-04-28 07:20 19.09059 72.87896 49 ft 3 kts 90°
2026-04-28 07:20 19.09059 72.87930 49 ft 6 kts 90°
2026-04-28 07:20 19.09058 72.87987 49 ft 6 kts 90°
2026-04-28 07:20 19.09058 72.88013 49 ft 5 kts 96°
2026-04-28 07:21 19.09036 72.88041 47 ft 1 kts 143°
2026-04-28 07:21 19.09027 72.88047 50 ft 3 kts 150°
2026-04-28 07:21 19.09017 72.88049 46 ft 0 kts 171°
2026-04-28 07:22 19.09004 72.88052 48 ft 4 kts 171°
2026-04-28 07:22 19.08970 72.88057 51 ft 0 kts 171°
2026-04-28 07:22 19.08966 72.88057 46 ft 1 kts 181°
2026-04-28 07:22 19.08939 72.88053 50 ft 6 kts 191°
2026-04-28 07:23 19.08901 72.88021 46 ft 8 kts 241°
2026-04-28 07:23 19.08889 72.87958 53 ft 10 kts 267°
2026-04-28 07:23 19.08888 72.87944 53 ft 0 kts 268°
2026-04-28 07:24 19.08888 72.87929 53 ft 10 kts 269°
2026-04-28 07:24 19.08884 72.87637 48 ft 77 kts 269°
2026-04-28 07:25 19.08872 72.86815 53 ft 144 kts 269°
2026-04-28 07:25 19.08862 72.85643 592 ft 160 kts 270°
2026-04-28 07:25 19.08860 72.84459 1317 ft 165 kts 269°
2026-04-28 07:25 19.08845 72.83170 1646 ft 191 kts 269°
2026-04-28 07:26 19.08823 72.81647 1863 ft 223 kts 270°
2026-04-28 07:26 19.08796 72.79895 2183 ft 249 kts 270°
2026-04-28 07:26 19.08763 72.78012 2788 ft 261 kts 271°
2026-04-28 07:26 19.08729 72.76081 3600 ft 264 kts 272°
2026-04-28 07:27 19.08810 72.74165 4461 ft 263 kts 278°
2026-04-28 07:27 19.09005 72.72240 5314 ft 264 kts 279°
2026-04-28 07:27 19.09221 72.70293 6082 ft 269 kts 279°
2026-04-28 07:27 19.09440 72.68309 6785 ft 274 kts 278°
2026-04-28 07:28 19.09661 72.66289 7550 ft 278 kts 277°
2026-04-28 07:28 19.09881 72.64264 8305 ft 282 kts 276°
2026-04-28 07:28 19.10104 72.62191 9098 ft 286 kts 276°
2026-04-28 07:28 19.10332 72.60073 9930 ft 290 kts 275°
2026-04-28 07:29 19.10485 72.58641 10282 ft 301 kts 275°
2026-04-28 07:29 19.10810 72.55589 10683 ft 329 kts 275°
2026-04-28 07:29 19.11074 72.53107 11049 ft 346 kts 275°
2026-04-28 07:29 19.11256 72.51414 11410 ft 351 kts 275°
2026-04-28 07:30 19.11533 72.48827 12096 ft 356 kts 275°
2026-04-28 07:30 19.11815 72.46205 12842 ft 359 kts 275°
2026-04-28 07:30 19.12097 72.43565 13579 ft 363 kts 275°
2026-04-28 07:30 19.12377 72.40932 14216 ft 367 kts 275°
2026-04-28 07:31 19.12664 72.38238 14836 ft 371 kts 275°
2026-04-28 07:31 19.12954 72.35510 15441 ft 375 kts 275°
2026-04-28 07:31 19.13247 72.32749 16044 ft 379 kts 276°
2026-04-28 07:31 19.13543 72.29956 16665 ft 382 kts 276°
2026-04-28 07:32 19.13841 72.27140 17261 ft 387 kts 276°
2026-04-28 07:32 19.14138 72.24330 17845 ft 390 kts 277°
2026-04-28 07:32 19.14442 72.21451 18360 ft 395 kts 277°
2026-04-28 07:32 19.14748 72.18542 18877 ft 398 kts 277°
2026-04-28 07:33 19.15055 72.15624 19413 ft 400 kts 277°
2026-04-28 07:33 19.15377 72.12688 19979 ft 403 kts 278°
2026-04-28 07:33 19.15967 72.09779 20551 ft 405 kts 287°
2026-04-28 07:33 19.17024 72.07046 21125 ft 408 kts 296°
2026-04-28 07:34 19.18340 72.04377 21710 ft 411 kts 298°
2026-04-28 07:34 19.19703 72.01702 22278 ft 414 kts 298°
2026-04-28 07:34 19.21075 71.99005 22848 ft 417 kts 298°
2026-04-28 07:34 19.22454 71.96281 23423 ft 420 kts 297°
2026-04-28 07:35 19.23828 71.93559 23938 ft 422 kts 297°
2026-04-28 07:35 19.25204 71.90827 24455 ft 424 kts 297°
2026-04-28 07:35 19.26597 71.88060 24996 ft 426 kts 297°
2026-04-28 07:35 19.27995 71.85279 25539 ft 428 kts 297°
2026-04-28 07:36 19.29398 71.82486 26083 ft 431 kts 297°
2026-04-28 07:36 19.30811 71.79671 26621 ft 434 kts 297°
2026-04-28 07:36 19.32230 71.76843 27142 ft 436 kts 297°
2026-04-28 07:36 19.33642 71.74027 27680 ft 439 kts 297°
2026-04-28 07:37 19.35079 71.71160 28193 ft 442 kts 297°
2026-04-28 07:37 19.36529 71.68267 28725 ft 445 kts 297°
2026-04-28 07:37 19.37983 71.65364 29230 ft 447 kts 297°
2026-04-28 07:37 19.39446 71.62441 29718 ft 450 kts 297°
2026-04-28 07:38 19.40903 71.59528 30158 ft 453 kts 297°
2026-04-28 07:38 19.42381 71.56572 30571 ft 455 kts 297°
2026-04-28 07:38 19.43866 71.53601 30999 ft 456 kts 297°
2026-04-28 07:38 19.45352 71.50625 31425 ft 458 kts 297°
2026-04-28 07:39 19.46846 71.47633 31821 ft 460 kts 297°
2026-04-28 07:39 19.48345 71.44629 32208 ft 461 kts 296°
2026-04-28 07:39 19.49850 71.41611 32580 ft 463 kts 297°
2026-04-28 07:39 19.51344 71.38615 32927 ft 465 kts 297°
2026-04-28 07:40 19.52861 71.35569 33272 ft 467 kts 296°
2026-04-28 07:40 19.54382 71.32515 33612 ft 469 kts 296°
2026-04-28 07:40 19.55909 71.29448 33954 ft 469 kts 296°
2026-04-28 07:40 19.57430 71.26390 34333 ft 468 kts 296°
2026-04-28 07:41 19.58932 71.23370 34666 ft 468 kts 296°
2026-04-28 07:41 19.60407 71.20277 34976 ft 468 kts 293°
2026-04-28 07:41 19.61605 71.17067 35290 ft 467 kts 289°
2026-04-28 07:41 19.62680 71.13810 35595 ft 467 kts 288°
2026-04-28 07:42 19.63694 71.10569 35916 ft 467 kts 288°
2026-04-28 07:42 19.64698 71.07291 36219 ft 467 kts 287°
2026-04-28 07:42 19.65698 71.04012 36511 ft 467 kts 287°
2026-04-28 07:42 19.66702 71.00734 36823 ft 467 kts 288°
2026-04-28 07:43 19.67701 70.97494 37103 ft 466 kts 288°
2026-04-28 07:43 19.68716 70.94221 37390 ft 466 kts 288°
2026-04-28 07:43 19.69735 70.90946 37677 ft 466 kts 288°
2026-04-28 07:43 19.70755 70.87670 37945 ft 466 kts 288°
2026-04-28 07:44 19.71771 70.84406 38202 ft 466 kts 288°
2026-04-28 07:44 19.72776 70.81178 38454 ft 466 kts 288°
2026-04-28 07:44 19.73791 70.77915 38681 ft 465 kts 288°
2026-04-28 07:44 19.74808 70.74641 38862 ft 466 kts 288°
2026-04-28 07:45 19.75824 70.71367 39031 ft 466 kts 288°
2026-04-28 07:45 19.76829 70.68129 39227 ft 466 kts 288°
2026-04-28 07:45 19.77841 70.64862 39429 ft 466 kts 288°
2026-04-28 07:45 19.78858 70.61576 39639 ft 465 kts 288°
2026-04-28 07:46 19.79869 70.58309 39792 ft 466 kts 289°
2026-04-28 07:46 19.80883 70.55029 39826 ft 466 kts 289°
2026-04-28 07:46 19.82895 70.48513 39826 ft 466 kts 289°
2026-04-28 07:47 19.84899 70.41939 39823 ft 467 kts 286°
2026-04-28 07:47 19.85849 70.35170 39826 ft 468 kts 271°
2026-04-28 07:48 19.84853 70.28302 39829 ft 472 kts 256°
2026-04-28 07:48 19.82852 70.21675 39826 ft 474 kts 253°
2026-04-28 07:49 19.80694 70.15048 39826 ft 474 kts 253°
2026-04-28 07:49 19.78544 70.08398 39826 ft 474 kts 253°
2026-04-28 07:50 19.76439 70.01795 39823 ft 474 kts 253°
2026-04-28 07:50 19.74325 69.95136 39823 ft 474 kts 253°
2026-04-28 07:51 19.72225 69.88527 39821 ft 474 kts 253°
2026-04-28 07:51 19.70113 69.81895 39821 ft 475 kts 253°
2026-04-28 07:52 19.68001 69.75273 39823 ft 475 kts 253°
2026-04-28 07:52 19.65874 69.68613 39823 ft 476 kts 253°
2026-04-28 07:53 19.63745 69.61957 39823 ft 476 kts 253°
2026-04-28 07:53 19.61626 69.55343 39823 ft 476 kts 253°
2026-04-28 07:54 19.59491 69.48689 39826 ft 476 kts 253°
2026-04-28 07:54 19.57486 69.42042 39827 ft 475 kts 259°
2026-04-28 07:55 19.56891 69.35106 39823 ft 470 kts 275°
2026-04-28 07:55 19.58315 69.28436 39824 ft 468 kts 293°
2026-04-28 07:56 19.61121 69.22185 39821 ft 469 kts 297°
2026-04-28 07:56 19.64113 69.16079 39821 ft 469 kts 298°
2026-04-28 07:57 19.67134 69.09903 39820 ft 470 kts 297°
2026-04-28 07:57 19.70116 69.03722 39821 ft 470 kts 297°
2026-04-28 07:58 19.73065 68.97566 39822 ft 470 kts 297°
2026-04-28 07:58 19.76029 68.91366 39819 ft 470 kts 297°
2026-04-28 07:59 19.78989 68.85171 39817 ft 470 kts 297°
2026-04-28 07:59 19.81930 68.79013 39821 ft 470 kts 297°
2026-04-28 08:00 19.84879 68.72829 39821 ft 470 kts 297°
2026-04-28 08:00 19.87837 68.66620 39821 ft 469 kts 297°
2026-04-28 08:01 19.90770 68.60457 39818 ft 469 kts 297°
2026-04-28 08:01 19.93720 68.54252 39814 ft 469 kts 297°
2026-04-28 08:02 19.96667 68.48047 39816 ft 469 kts 297°
2026-04-28 08:02 19.99597 68.41869 39813 ft 469 kts 297°
2026-04-28 08:03 20.02544 68.35650 39815 ft 469 kts 297°
2026-04-28 08:03 20.05464 68.29480 39815 ft 469 kts 297°
2026-04-28 08:04 20.08402 68.23266 39811 ft 469 kts 297°
2026-04-28 08:04 20.11315 68.17097 39814 ft 467 kts 297°
2026-04-28 08:05 20.14231 68.10916 39816 ft 467 kts 297°
2026-04-28 08:05 20.17148 68.04725 39816 ft 467 kts 297°
2026-04-28 08:06 20.20060 67.98539 39816 ft 467 kts 297°
2026-04-28 08:06 20.22961 67.92368 39818 ft 467 kts 297°
2026-04-28 08:07 20.25871 67.86171 39815 ft 467 kts 297°
2026-04-28 08:07 20.28783 67.79963 39818 ft 467 kts 297°
2026-04-28 08:08 20.31675 67.73792 39825 ft 467 kts 297°
2026-04-28 08:08 20.34553 67.67642 39814 ft 464 kts 297°
2026-04-28 08:09 20.37428 67.61490 39818 ft 462 kts 297°
2026-04-28 08:09 20.40301 67.55341 39818 ft 462 kts 297°
2026-04-28 08:10 20.43150 67.49234 39818 ft 462 kts 297°
2026-04-28 08:10 20.46017 67.43080 39818 ft 462 kts 297°
2026-04-28 08:11 20.48867 67.36958 39818 ft 463 kts 297°
2026-04-28 08:11 20.51734 67.30791 39818 ft 463 kts 297°
2026-04-28 08:12 20.54575 67.24671 39821 ft 463 kts 297°
2026-04-28 08:12 20.57440 67.18495 39821 ft 463 kts 297°
2026-04-28 08:13 20.60288 67.12349 39818 ft 464 kts 297°
2026-04-28 08:13 20.63149 67.06167 39818 ft 464 kts 297°
2026-04-28 08:14 20.65989 67.00023 39819 ft 464 kts 297°
2026-04-28 08:14 20.68845 66.93837 39817 ft 464 kts 297°
2026-04-28 08:15 20.71698 66.87651 39812 ft 463 kts 297°
2026-04-28 08:15 20.74534 66.81497 39815 ft 464 kts 297°
2026-04-28 08:16 20.77386 66.75299 39815 ft 464 kts 297°
2026-04-28 08:16 20.80241 66.69086 39814 ft 464 kts 297°
2026-04-28 08:17 20.83065 66.62934 39816 ft 462 kts 297°
2026-04-28 08:17 20.85418 66.57804 39815 ft 461 kts 297°
2026-04-28 08:18 20.88705 66.50628 39813 ft 461 kts 297°
2026-04-28 08:18 20.91055 66.45491 39813 ft 461 kts 297°
2026-04-28 08:19 20.93875 66.39322 39812 ft 461 kts 297°
2026-04-28 08:19 20.96697 66.33141 39812 ft 461 kts 297°
2026-04-28 08:20 20.99501 66.26991 39808 ft 461 kts 297°
2026-04-28 08:20 21.02302 66.20842 39814 ft 462 kts 297°
2026-04-28 08:21 21.05115 66.14658 39812 ft 461 kts 297°
2026-04-28 08:21 21.07924 66.08477 39807 ft 460 kts 297°
2026-04-28 08:22 21.10712 66.02335 39806 ft 460 kts 297°
2026-04-28 08:22 21.13538 65.96161 39807 ft 460 kts 297°
2026-04-28 08:23 21.16421 65.90071 39804 ft 460 kts 298°
2026-04-28 08:23 21.19314 65.83979 39807 ft 460 kts 298°
2026-04-28 08:24 21.22213 65.77836 39805 ft 461 kts 297°
2026-04-28 08:24 21.25103 65.71688 39803 ft 461 kts 297°
2026-04-28 08:25 21.27966 65.65583 39804 ft 459 kts 297°
2026-04-28 08:26 21.32272 65.56392 39805 ft 459 kts 297°
2026-04-28 08:26 21.35125 65.50296 39801 ft 459 kts 297°
2026-04-28 08:27 21.37998 65.44150 39800 ft 459 kts 297°
2026-04-28 08:27 21.40847 65.38047 39803 ft 459 kts 297°
2026-04-28 08:28 21.43715 65.31896 39799 ft 459 kts 297°
2026-04-28 08:28 21.46576 65.25752 39798 ft 460 kts 297°
2026-04-28 08:29 21.49426 65.19628 39799 ft 460 kts 297°
2026-04-28 08:29 21.52268 65.13510 39801 ft 459 kts 297°
2026-04-28 08:30 21.55123 65.07359 39798 ft 459 kts 297°
2026-04-28 08:30 21.57953 65.01254 39798 ft 459 kts 297°
2026-04-28 08:31 21.60803 64.95100 39799 ft 459 kts 297°
2026-04-28 08:31 21.63638 64.88969 39797 ft 460 kts 297°
2026-04-28 08:32 21.66473 64.82831 39796 ft 460 kts 297°
2026-04-28 08:32 21.69324 64.76652 39796 ft 460 kts 297°
2026-04-28 08:33 21.72169 64.70479 39794 ft 459 kts 297°
2026-04-28 08:33 21.74987 64.64354 39793 ft 459 kts 297°
2026-04-28 08:34 21.77820 64.58192 39794 ft 459 kts 297°
2026-04-28 08:34 21.80632 64.52068 39793 ft 459 kts 297°
2026-04-28 08:35 21.83461 64.45898 39792 ft 459 kts 297°
2026-04-28 08:35 21.86269 64.39769 39790 ft 459 kts 297°
2026-04-28 08:36 21.89097 64.33587 39786 ft 459 kts 297°
2026-04-28 08:36 21.91908 64.27435 39787 ft 459 kts 297°
2026-04-28 08:37 21.94729 64.21254 39790 ft 458 kts 296°
2026-04-28 08:37 21.97518 64.15137 39785 ft 457 kts 296°
2026-04-28 08:38 22.00324 64.08973 39788 ft 457 kts 296°
2026-04-28 08:38 22.03126 64.02812 39786 ft 457 kts 296°
2026-04-28 08:39 22.05910 63.96682 39783 ft 458 kts 296°
2026-04-28 08:39 22.08712 63.90506 39782 ft 458 kts 296°
2026-04-28 08:40 22.11514 63.84320 39782 ft 458 kts 296°
2026-04-28 08:40 22.14302 63.78161 39786 ft 458 kts 296°
2026-04-28 08:41 22.17080 63.72014 39780 ft 457 kts 296°
2026-04-28 08:41 22.19866 63.65843 39782 ft 456 kts 296°
2026-04-28 08:42 22.22635 63.59701 39780 ft 457 kts 296°
2026-04-28 08:42 22.25420 63.53516 39779 ft 457 kts 296°
2026-04-28 08:43 22.28202 63.47331 39782 ft 457 kts 296°
2026-04-28 08:43 22.30959 63.41192 39776 ft 457 kts 296°
2026-04-28 08:44 22.33734 63.35006 39778 ft 457 kts 296°
2026-04-28 08:44 22.36512 63.28809 39779 ft 457 kts 296°
2026-04-28 08:45 22.39266 63.22653 39777 ft 456 kts 296°
2026-04-28 08:45 22.42027 63.16476 39777 ft 456 kts 296°
2026-04-28 08:46 22.44480 63.10197 39778 ft 456 kts 288°
2026-04-28 08:46 22.46299 63.03599 39776 ft 457 kts 287°
2026-04-28 08:47 22.47998 62.96998 39771 ft 457 kts 286°
2026-04-28 08:47 22.49693 62.90350 39771 ft 457 kts 286°
2026-04-28 08:48 22.51394 62.83717 39775 ft 457 kts 286°
2026-04-28 08:48 22.53090 62.77122 39774 ft 458 kts 286°
2026-04-28 08:49 22.54798 62.70473 39766 ft 457 kts 286°
2026-04-28 08:49 22.56486 62.63884 39771 ft 456 kts 286°
2026-04-28 08:50 22.58185 62.57243 39773 ft 456 kts 286°
2026-04-28 08:50 22.59867 62.50654 39767 ft 456 kts 286°
2026-04-28 08:51 22.61559 62.44015 39767 ft 456 kts 286°
2026-04-28 08:51 22.63245 62.37386 39768 ft 456 kts 286°
2026-04-28 08:52 22.64920 62.30790 39770 ft 457 kts 286°
2026-04-28 08:52 22.66606 62.24138 39768 ft 457 kts 286°
2026-04-28 08:53 22.68277 62.17532 39766 ft 457 kts 285°
2026-04-28 08:53 22.69958 62.10873 39766 ft 457 kts 285°
2026-04-28 08:54 22.71626 62.04254 39768 ft 457 kts 285°
2026-04-28 08:54 22.73300 61.97596 39768 ft 457 kts 285°
2026-04-28 08:55 22.74963 61.90974 39755 ft 457 kts 285°
2026-04-28 08:55 22.76629 61.84323 39760 ft 458 kts 285°
2026-04-28 08:56 22.78302 61.77636 39764 ft 459 kts 285°
2026-04-28 08:56 22.79959 61.70999 39763 ft 459 kts 285°
2026-04-28 08:57 22.81623 61.64318 39760 ft 459 kts 285°
2026-04-28 08:57 22.83288 61.57622 39760 ft 459 kts 285°
2026-04-28 08:58 22.84947 61.50938 39763 ft 459 kts 285°
2026-04-28 08:58 22.86605 61.44245 39763 ft 459 kts 285°
2026-04-28 08:59 22.88249 61.37594 39757 ft 457 kts 285°
2026-04-28 08:59 22.89886 61.30961 39760 ft 457 kts 285°
2026-04-28 09:00 22.91530 61.24283 39762 ft 458 kts 285°
2026-04-28 09:00 22.93164 61.17637 39759 ft 458 kts 285°
2026-04-28 09:01 22.94803 61.10958 39757 ft 457 kts 285°
2026-04-28 09:01 22.96432 61.04304 39757 ft 458 kts 285°
2026-04-28 09:02 22.98070 60.97603 39758 ft 458 kts 285°
2026-04-28 09:02 22.99702 60.90910 39754 ft 458 kts 285°
2026-04-28 09:03 23.01323 60.84258 39755 ft 458 kts 285°
2026-04-28 09:03 23.02950 60.77561 39755 ft 458 kts 284°
2026-04-28 09:04 23.04571 60.70875 39757 ft 457 kts 284°
2026-04-28 09:04 23.06190 60.64188 39755 ft 457 kts 284°
2026-04-28 09:05 23.07800 60.57548 39755 ft 457 kts 284°
2026-04-28 09:05 23.09417 60.50850 39755 ft 457 kts 284°
2026-04-28 09:06 23.11019 60.44195 39750 ft 457 kts 284°
2026-04-28 09:06 23.12631 60.37495 39749 ft 458 kts 284°
2026-04-28 09:07 23.14242 60.30784 39750 ft 458 kts 284°
2026-04-28 09:07 23.15839 60.24123 39752 ft 458 kts 284°
2026-04-28 09:08 23.17173 60.18546 39751 ft 458 kts 284°
2026-04-28 09:08 23.18765 60.11880 39752 ft 457 kts 284°
2026-04-28 09:09 23.20362 60.05180 39749 ft 456 kts 284°
2026-04-28 09:09 23.21955 59.98481 39752 ft 456 kts 284°
2026-04-28 09:10 23.23535 59.91825 39754 ft 457 kts 284°
2026-04-28 09:10 23.25119 59.85138 39751 ft 457 kts 283°
2026-04-28 09:11 23.26702 59.78438 39747 ft 457 kts 283°
2026-04-28 09:11 23.28283 59.71739 39746 ft 457 kts 283°
2026-04-28 09:12 23.29858 59.65047 39748 ft 457 kts 283°
2026-04-28 09:12 23.31423 59.58388 39748 ft 457 kts 283°
2026-04-28 09:13 23.32998 59.51672 39753 ft 456 kts 283°
2026-04-28 09:13 23.34555 59.45015 39749 ft 456 kts 283°
2026-04-28 09:14 23.36121 59.38310 39745 ft 456 kts 283°
2026-04-28 09:14 23.37682 59.31611 39744 ft 456 kts 283°
2026-04-28 09:15 23.39241 59.24906 39753 ft 456 kts 283°
2026-04-28 09:15 23.40787 59.18246 39752 ft 456 kts 283°
2026-04-28 09:16 23.42845 59.11695 39754 ft 458 kts 291°
2026-04-28 09:16 23.45366 59.05318 39755 ft 458 kts 292°
2026-04-28 09:17 23.47945 58.98993 39769 ft 458 kts 292°
2026-04-28 09:17 23.50442 58.92605 39757 ft 457 kts 287°
2026-04-28 09:18 23.51823 58.85873 39757 ft 455 kts 278°
2026-04-28 09:18 23.52710 58.79076 39766 ft 455 kts 277°
2026-04-28 09:19 23.53525 58.72215 39765 ft 455 kts 276°
2026-04-28 09:19 23.54340 58.65408 39767 ft 455 kts 277°
2026-04-28 09:20 23.55173 58.58564 39774 ft 455 kts 277°
2026-04-28 09:20 23.56008 58.51721 39773 ft 455 kts 277°
2026-04-28 09:21 23.56835 58.44915 39775 ft 455 kts 276°
2026-04-28 09:21 23.57664 58.38070 39773 ft 455 kts 276°
2026-04-28 09:22 23.58489 58.31228 39774 ft 455 kts 276°
2026-04-28 09:22 23.59676 58.24429 39780 ft 456 kts 285°
2026-04-28 09:23 23.61573 58.17865 39773 ft 456 kts 286°
2026-04-28 09:23 23.63596 58.11297 39783 ft 456 kts 287°
2026-04-28 09:24 23.65625 58.04734 39788 ft 457 kts 287°
2026-04-28 09:24 23.67642 57.98154 39792 ft 456 kts 287°
2026-04-28 09:25 23.69638 57.91605 39781 ft 456 kts 287°
2026-04-28 09:25 23.71279 57.84905 39790 ft 456 kts 281°
2026-04-28 09:26 23.72618 57.78156 39793 ft 457 kts 281°
2026-04-28 09:26 23.74006 57.71372 39795 ft 457 kts 281°
2026-04-28 09:27 23.76178 57.61282 39789 ft 456 kts 282°
2026-04-28 09:27 23.77643 57.54566 39791 ft 457 kts 282°
2026-04-28 09:28 23.79107 57.47818 39787 ft 457 kts 281°
2026-04-28 09:28 23.80566 57.41053 39789 ft 457 kts 281°
2026-04-28 09:29 23.82021 57.34292 39795 ft 457 kts 281°
2026-04-28 09:29 23.83467 57.27565 39796 ft 457 kts 281°
2026-04-28 09:30 23.84920 57.20788 39796 ft 457 kts 281°
2026-04-28 09:30 23.86369 57.14019 39802 ft 457 kts 281°
2026-04-28 09:31 23.87806 57.07289 39797 ft 456 kts 281°
2026-04-28 09:31 23.89246 57.00530 39768 ft 455 kts 281°
2026-04-28 09:32 23.89952 56.97207 39548 ft 453 kts 281°
2026-04-28 09:32 23.90666 56.93847 39330 ft 453 kts 281°
2026-04-28 09:32 23.91379 56.90487 39058 ft 451 kts 281°
2026-04-28 09:32 23.92086 56.87154 38570 ft 448 kts 281°
2026-04-28 09:33 23.92779 56.83877 37935 ft 446 kts 281°
2026-04-28 09:33 23.93478 56.80569 37301 ft 445 kts 282°
2026-04-28 09:33 23.94174 56.77273 36660 ft 443 kts 282°
2026-04-28 09:33 23.94867 56.73986 36029 ft 442 kts 282°
2026-04-28 09:34 23.95555 56.70717 35385 ft 441 kts 282°
2026-04-28 09:34 23.96245 56.67440 34728 ft 441 kts 283°
2026-04-28 09:34 23.96932 56.64174 34103 ft 440 kts 283°
2026-04-28 09:34 23.97608 56.60959 33570 ft 436 kts 283°
2026-04-28 09:35 23.98285 56.57744 33029 ft 431 kts 283°
2026-04-28 09:35 23.98954 56.54568 32521 ft 425 kts 282°
2026-04-28 09:35 23.99612 56.51430 32011 ft 421 kts 282°
2026-04-28 09:35 24.00261 56.48327 31502 ft 416 kts 281°
2026-04-28 09:36 24.00904 56.45254 31003 ft 412 kts 281°
2026-04-28 09:36 24.01533 56.42240 30508 ft 409 kts 280°
2026-04-28 09:36 24.02162 56.39217 30017 ft 405 kts 280°
2026-04-28 09:36 24.02784 56.36226 29474 ft 400 kts 279°
2026-04-28 09:37 24.03398 56.33268 28986 ft 395 kts 280°
2026-04-28 09:37 24.04003 56.30358 28531 ft 390 kts 280°
2026-04-28 09:37 24.04689 56.27527 28054 ft 386 kts 286°
2026-04-28 09:37 24.05575 56.24766 27607 ft 382 kts 286°
2026-04-28 09:38 24.06495 56.22051 27148 ft 381 kts 287°
2026-04-28 09:38 24.07439 56.19340 26697 ft 380 kts 288°
2026-04-28 09:38 24.08391 56.16644 26213 ft 378 kts 288°
2026-04-28 09:38 24.09329 56.13995 25771 ft 376 kts 288°
2026-04-28 09:39 24.10272 56.11331 25296 ft 374 kts 288°
2026-04-28 09:39 24.11209 56.08675 24832 ft 373 kts 288°
2026-04-28 09:39 24.12142 56.06023 24370 ft 371 kts 288°
2026-04-28 09:39 24.13064 56.03393 23901 ft 370 kts 288°
2026-04-28 09:40 24.13988 56.00752 23438 ft 368 kts 288°
2026-04-28 09:40 24.14891 55.98170 22907 ft 367 kts 288°
2026-04-28 09:40 24.15804 55.95559 22428 ft 365 kts 288°
2026-04-28 09:40 24.16709 55.92972 21949 ft 363 kts 288°
2026-04-28 09:41 24.17606 55.90403 21467 ft 360 kts 288°
2026-04-28 09:41 24.18502 55.87836 21008 ft 358 kts 288°
2026-04-28 09:41 24.19390 55.85290 20527 ft 356 kts 288°
2026-04-28 09:41 24.20261 55.82791 20067 ft 354 kts 288°
2026-04-28 09:42 24.21103 55.80264 19572 ft 352 kts 285°
2026-04-28 09:42 24.21809 55.77709 19121 ft 349 kts 284°
2026-04-28 09:42 24.22468 55.75154 18681 ft 347 kts 283°
2026-04-28 09:42 24.23096 55.72604 18219 ft 345 kts 283°
2026-04-28 09:43 24.23704 55.70091 17724 ft 343 kts 283°
2026-04-28 09:43 24.24308 55.67571 17254 ft 341 kts 283°
2026-04-28 09:43 24.24911 55.65057 16797 ft 339 kts 283°
2026-04-28 09:43 24.25511 55.62563 16340 ft 337 kts 283°
2026-04-28 09:44 24.26109 55.60088 15887 ft 334 kts 284°
2026-04-28 09:44 24.26631 55.57620 15427 ft 332 kts 281°
2026-04-28 09:44 24.27088 55.55146 14991 ft 330 kts 281°
2026-04-28 09:44 24.27538 55.52713 14547 ft 329 kts 281°
2026-04-28 09:45 24.27999 55.50266 14333 ft 322 kts 281°
2026-04-28 09:45 24.28448 55.47908 14205 ft 308 kts 281°
2026-04-28 09:45 24.28878 55.45664 14108 ft 294 kts 282°
2026-04-28 09:45 24.29286 55.43537 14012 ft 283 kts 282°
2026-04-28 09:46 24.29684 55.41458 13851 ft 275 kts 282°
2026-04-28 09:46 24.30078 55.39410 13528 ft 274 kts 282°
2026-04-28 09:46 24.30470 55.37368 13179 ft 273 kts 282°
2026-04-28 09:46 24.30960 55.35350 12863 ft 277 kts 288°
2026-04-28 09:47 24.31577 55.33300 12772 ft 293 kts 289°
2026-04-28 09:47 24.32230 55.31187 12546 ft 290 kts 289°
2026-04-28 09:47 24.32875 55.29099 12129 ft 288 kts 289°
2026-04-28 09:47 24.33523 55.26997 12018 ft 293 kts 289°
2026-04-28 09:48 24.34178 55.24869 11998 ft 295 kts 289°
2026-04-28 09:48 24.34829 55.22753 11935 ft 292 kts 289°
2026-04-28 09:48 24.35474 55.20651 11448 ft 292 kts 289°
2026-04-28 09:48 24.36120 55.18542 10912 ft 290 kts 289°
2026-04-28 09:49 24.36757 55.16482 10567 ft 278 kts 289°
2026-04-28 09:49 24.37353 55.14526 10296 ft 264 kts 289°
2026-04-28 09:49 24.37926 55.12638 10036 ft 260 kts 289°
2026-04-28 09:49 24.38499 55.10755 9771 ft 259 kts 289°
2026-04-28 09:50 24.39063 55.08904 9532 ft 260 kts 289°
2026-04-28 09:50 24.39638 55.07022 9257 ft 259 kts 290°
2026-04-28 09:50 24.40215 55.05143 8869 ft 258 kts 289°
2026-04-28 09:50 24.40783 55.03282 8550 ft 256 kts 289°
2026-04-28 09:51 24.41163 55.01375 8420 ft 253 kts 278°
2026-04-28 09:51 24.41159 54.99513 8411 ft 238 kts 263°
2026-04-28 09:51 24.40670 54.97834 8312 ft 232 kts 244°
2026-04-28 09:51 24.39633 54.96461 7774 ft 240 kts 219°
2026-04-28 09:52 24.38065 54.95777 7193 ft 251 kts 187°
2026-04-28 09:52 24.36330 54.96068 6736 ft 253 kts 162°
2026-04-28 09:52 24.34680 54.96716 6351 ft 251 kts 159°
2026-04-28 09:52 24.33048 54.97386 5979 ft 248 kts 159°
2026-04-28 09:53 24.31438 54.98039 5588 ft 245 kts 160°
2026-04-28 09:53 24.30007 54.98981 5107 ft 245 kts 135°
2026-04-28 09:53 24.28910 55.00395 4687 ft 243 kts 123°
2026-04-28 09:53 24.27940 55.01918 4256 ft 243 kts 122°
2026-04-28 09:54 24.26969 55.03448 4021 ft 245 kts 126°
2026-04-28 09:54 24.25713 55.04705 3994 ft 245 kts 149°
2026-04-28 09:54 24.24132 55.05244 3984 ft 241 kts 181°
2026-04-28 09:54 24.22572 55.04713 3985 ft 232 kts 221°
2026-04-28 09:55 24.21704 55.03302 3990 ft 221 kts 261°
2026-04-28 09:55 24.21639 55.02208 3994 ft 216 kts 277°
2026-04-28 09:55 24.21868 55.00028 3986 ft 219 kts 287°
2026-04-28 09:55 24.22348 54.98446 3995 ft 217 kts 296°
2026-04-28 09:56 24.23053 54.97034 4014 ft 201 kts 305°
2026-04-28 09:56 24.23549 54.96220 4023 ft 188 kts 306°
2026-04-28 09:56 24.24293 54.95090 3854 ft 180 kts 311°
2026-04-28 09:56 24.25330 54.93679 3451 ft 179 kts 310°
2026-04-28 09:57 24.25853 54.92953 3238 ft 180 kts 309°
2026-04-28 09:57 24.26614 54.91893 3021 ft 178 kts 309°
2026-04-28 09:57 24.27380 54.90823 2997 ft 178 kts 310°
2026-04-28 09:57 24.28138 54.89760 2989 ft 176 kts 310°
2026-04-28 09:58 24.28892 54.88698 2995 ft 175 kts 310°
2026-04-28 09:58 24.29611 54.87680 3000 ft 162 kts 309°
2026-04-28 09:58 24.30282 54.86727 2998 ft 159 kts 309°
2026-04-28 09:58 24.30967 54.85759 2991 ft 160 kts 310°
2026-04-28 09:59 24.31655 54.84789 2991 ft 161 kts 310°
2026-04-28 09:59 24.32339 54.83823 2993 ft 159 kts 310°
2026-04-28 09:59 24.33009 54.82879 2992 ft 157 kts 310°
2026-04-28 09:59 24.33678 54.81935 2987 ft 157 kts 309°
2026-04-28 10:00 24.34353 54.80981 2995 ft 159 kts 310°
2026-04-28 10:00 24.35032 54.80022 2864 ft 158 kts 311°
2026-04-28 10:00 24.35705 54.79073 2665 ft 155 kts 310°
2026-04-28 10:00 24.36353 54.78157 2443 ft 148 kts 311°
2026-04-28 10:01 24.36963 54.77296 2272 ft 140 kts 309°
2026-04-28 10:01 24.37548 54.76471 2096 ft 136 kts 309°
2026-04-28 10:01 24.38126 54.75654 1935 ft 134 kts 310°
2026-04-28 10:01 24.38695 54.74846 1740 ft 132 kts 311°
2026-04-28 10:02 24.39255 54.74043 1556 ft 131 kts 311°
2026-04-28 10:02 24.39813 54.73268 1361 ft 131 kts 312°
2026-04-28 10:02 24.40376 54.72488 1204 ft 131 kts 310°
2026-04-28 10:02 24.40936 54.71685 1041 ft 133 kts 309°
2026-04-28 10:03 24.41488 54.70866 890 ft 132 kts 308°
2026-04-28 10:03 24.42046 54.70070 752 ft 133 kts 310°
2026-04-28 10:03 24.42629 54.69282 575 ft 132 kts 310°
2026-04-28 10:03 24.43193 54.68496 403 ft 132 kts 310°
2026-04-28 10:04 24.43751 54.67699 265 ft 131 kts 312°
2026-04-28 10:04 24.44311 54.66922 111 ft 129 kts 310°
2026-04-28 10:04 24.44814 54.66214 86 ft 90 kts 308°
2026-04-28 10:04 24.45123 54.65777 88 ft 63 kts 307°
2026-04-28 10:05 24.45354 54.65439 86 ft 43 kts 300°
2026-04-28 10:05 24.45425 54.65169 82 ft 28 kts 278°
2026-04-28 10:05 24.45429 54.65134 81 ft 5 kts 278°
2026-04-28 10:05 24.45439 54.65056 83 ft 13 kts 278°
2026-04-28 10:06 24.45482 54.64965 85 ft 15 kts 309°
2026-04-28 10:06 24.45552 54.64871 85 ft 17 kts 309°
2026-04-28 10:06 24.45580 54.64829 86 ft 1 kts 306°
2026-04-28 10:06 24.45593 54.64809 92 ft 5 kts 306°
2026-04-28 10:07 24.45622 54.64767 83 ft 9 kts 308°
2026-04-28 10:07 24.45666 54.64705 86 ft 12 kts 308°
2026-04-28 10:07 24.45697 54.64624 82 ft 11 kts 256°
2026-04-28 10:07 24.45638 54.64553 86 ft 14 kts 220°
2026-04-28 10:08 24.45553 54.64479 84 ft 17 kts 218°
2026-04-28 10:08 24.45471 54.64410 85 ft 13 kts 217°
2026-04-28 10:08 24.45385 54.64386 85 ft 14 kts 154°
2026-04-28 10:08 24.45327 54.64450 86 ft 11 kts 127°
2026-04-28 10:09 24.45297 54.64537 84 ft 14 kts 102°
2026-04-28 10:09 24.45278 54.64653 84 ft 17 kts 100°
2026-04-28 10:09 24.45250 54.64793 86 ft 20 kts 105°
2026-04-28 10:09 24.45207 54.64949 84 ft 20 kts 111°
2026-04-28 10:10 24.45138 54.65063 87 ft 18 kts 127°
2026-04-28 10:10 24.45073 54.65140 87 ft 12 kts 156°
2026-04-28 10:10 24.44997 54.65109 85 ft 14 kts 216°
2026-04-28 10:10 24.44922 54.65044 86 ft 7 kts 218°
2026-04-28 10:11 24.44873 54.65005 86 ft 10 kts 216°
2026-04-28 10:11 24.44806 54.64948 86 ft 13 kts 218°
2026-04-28 10:11 24.44776 54.64888 87 ft 10 kts 274°
2026-04-28 10:11 24.44812 54.64815 87 ft 12 kts 307°
2026-04-28 10:12 24.44861 54.64745 87 ft 13 kts 305°
2026-04-28 10:12 24.44908 54.64650 84 ft 16 kts 291°
2026-04-28 10:12 24.44929 54.64556 85 ft 11 kts 279°
2026-04-28 10:12 24.44948 54.64482 87 ft 7 kts 300°
2026-04-28 10:13 24.44986 54.64440 86 ft 4 kts 320°
2026-04-28 10:13 24.45001 54.64426 86 ft 1 kts 320°
2026-04-28 10:13 24.45007 54.64420 86 ft 0 kts 320°